Location: Unspecified
(0.0000°N, 0.0000°E)
Time: 20:55:18
(UTC+00:00)

USA 119 - Visible Passes

Search period start: 04 June 2023 00:00
Search period end: 14 June 2023 00:00
Orbit: 2541 x 11723 km, 63.3° (Epoch: 24 October)

Date Brightness Start Highest point End Pass type
(mag) Time Alt. Az. Time Alt. Az. Time Alt. Az.
04 Jun ? 00:55:17 10° NW 01:30:16 38° WNW 01:30:16 38° WNW visible
04 Jun ? 22:16:01 10° NNW 23:12:45 71° NE 23:12:45 71° NE visible
05 Jun ? 19:49:50 10° N 20:43:09 26° NE 20:55:17 22° ENE visible
06 Jun ? 00:39:31 10° NW 01:15:47 40° WNW 01:15:47 40° WNW visible
06 Jun ? 22:00:42 10° NNW 22:58:20 70° NE 22:58:20 70° NE visible
07 Jun ? 19:35:01 10° N 20:27:35 25° NE 20:40:54 21° E visible
08 Jun ? 00:23:46 10° NW 01:01:25 42° WNW 01:01:25 42° WNW visible
08 Jun ? 21:45:25 10° NNW 22:44:00 69° NE 22:44:00 69° NE visible
09 Jun ? 19:20:14 10° N 20:12:00 24° NE 20:26:36 19° E visible
10 Jun ? 00:08:04 10° NNW 00:47:08 44° WNW 00:47:08 44° WNW visible
10 Jun ? 21:30:08 10° NNW 22:29:46 68° ENE 22:29:46 68° ENE visible
11 Jun ? 19:05:30 10° N 19:56:23 23° NE 20:12:24 17° E visible
11 Jun ? 23:52:22 10° NNW 00:32:57 46° WNW 00:32:57 46° WNW visible
12 Jun ? 21:14:51 10° NNW 22:15:30 67° ENE 22:15:36 67° ENE visible
13 Jun ? 18:50:49 10° N 19:40:45 22° NE 19:58:16 16° E visible
